Vorticity
5 1 5 4 6 5 2 3 5 5 2 4 5 6 5 4 6 6 6 9 4 6 5 2 -0 0 2 3 4 6 6 2 1 1 2 1 2 3 3 3 6 6 5
6 3 5 4 4 6 3 4 5 6 5 4 6 5 6 5 6 7 6 8 4 3 6 4 -1 0 1 3 4 6 6 3 1 2 2 2 2 2 3 5 6 5 5
3 8 2 5 4 5 9 6 6 3 5 3 6 5 6 6 7 6 5 8 6 2 5 4 1 0 1 4 4 5 6 3 1 3 2 2 3 3 3 9 3 5 4
1 8 8 2 8 8 3 1 5 6 6 4 5 5 5 7 8 6 6 8 5 4 8 4 2 0 1 4 5 5 6 3 2 3 3 2 3 3 7 6 2 5 4
8 0 10 6 6 6 -1 10 5 6 5 5 6 5 5 6 7 7 6 7 5 3 6 4 2 1 1 4 4 5 6 3 2 3 2 2 3 4 9 1 4 4 4
3 4 5 9 4 6 11 2 6 5 6 6 6 6 5 6 6 8 6 8 6 2 4 6 4 3 2 4 5 5 6 3 3 2 2 2 3 4 9 -1 5 4 5
8 2 8 8 9 8 -1 5 8 6 5 6 7 6 5 6 6 7 6 7 7 3 4 7 3 5 0 4 5 5 7 2 4 3 2 2 3 6 8 -1 6 5 5
8 1 5 0 4 6 12 6 2 11 7 6 6 5 5 6 6 7 6 7 7 3 1 6 4 1 2 4 5 7 6 2 4 2 2 3 3 6 7 -1 5 6 6
7 8 6 1 -1 3 2 2 7 10 7 7 6 6 6 5 6 6 6 7 6 4 1 3 5 0 2 4 4 9 5 3 2 2 2 2 3 6 6 0 4 7 6
6 7 7 8 0 2 8 3 4 8 9 6 6 5 6 5 6 6 7 7 6 6 4 0 -0 2 4 5 4 9 4 5 2 3 2 2 3 7 7 1 4 7 6
6 5 5 10 11 4 7 8 6 4 9 6 6 5 6 5 6 4 7 7 6 5 7 7 5 3 3 5 3 9 3 5 3 3 3 2 3 5 7 2 5 7 5
5 5 7 7 12 11 10 9 4 7 9 6 6 6 6 5 5 2 7 8 5 4 4 5 8 7 3 4 3 8 4 4 3 4 3 2 3 3 10 2 7 7 6
6 4 7 9 6 8 9 10 8 9 8 7 6 5 4 5 6 4 3 7 7 5 2 3 6 8 7 6 4 6 5 3 4 4 3 3 3 2 6 2 7 7 5
5 7 3 4 2 0 12 9 6 13 7 8 6 6 4 7 7 5 3 3 5 5 4 4 5 5 6 6 9 5 4 4 4 3 3 4 2 2 6 6 7 7 4
6 4 5 1 4 11 -3 7 10 8 10 7 9 4 4 5 7 5 5 3 4 4 3 7 7 6 7 5 10 5 3 3 3 3 4 4 2 3 7 8 7 7 4
9 5 5 3 -1 1 3 6 4 20 12 7 -1 2 3 7 8 7 4 5 6 6 5 8 8 8 7 8 5 4 2 2 3 3 6 2 2 3 9 10 6 7 4
8 6 4 4 6 -1 6 3 7 11 5 10 9 10 -2 -2 5 8 2 7 6 7 7 9 8 8 5 8 5 3 2 2 3 4 5 2 2 3 9 10 5 8 4
8 8 5 3 2 2 7 8 12 4 24 33 5 -22 29 11 0 7 13 -2 7 7 9 8 8 5 6 6 4 1 2 2 3 4 5 3 2 2 8 9 4 10 5
5 11 5 4 2 -8 3 -4 9 6 15 2 6 8 5 1 4 4 6 4 6 8 10 9 5 3 6 4 4 2 2 3 2 3 5 4 3 2 5 8 4 9 6
5 10 7 4 6 3 -19 27 -10 9 4 12 4 6 5 4 1 7 6 5 6 6 6 5 3 5 6 4 3 1 2 2 2 3 3 4 5 3 2 9 7 7 8
7 7 9 4 1 15 -29 5 18 10 6 4 6 6 6 2 3 6 4 5 6 6 2 2 3 7 6 5 4 2 2 2 2 2 3 3 4 5 3 10 11 5 11
8 5 11 5 2 5 28 -27 -23 8 8 -0 6 8 9 12 6 1 3 5 4 6 6 5 6 7 3 5 4 0 2 2 2 2 3 4 4 5 4 7 13 2 10
8 8 10 8 2 25 -48 -9 5 11 -4 8 0 5 7 5 10 3 5 5 3 5 6 6 7 5 3 4 5 4 2 2 2 2 2 3 4 4 5 5 13 3 7
8 9 6 8 2 -3 24 -15 27 8 5 7 7 0 5 7 6 11 4 5 4 3 5 6 5 4 3 4 4 3 3 2 3 1 2 4 4 4 6 3 12 6 4
8 7 8 10 6 -2 14 -1 31 24 7 5 10 2 2 3 6 8 9 8 4 4 3 4 4 4 3 4 5 4 4 4 3 2 2 4 4 4 7 3 10 7 4
5 8 9 9 8 26 -19 71 -43 63 -10 7 25 5 3 2 7 6 12 8 4 5 3 2 3 4 5 5 5 4 4 2 2 1 2 3 2 7 7 3 8 10 3
Height
5817 5819 5821 5824 5827 5829 5831 5834 5837 5838 5838 5845 5846 5845 5844 5845 5845 5847 5849 5851 5852 5854 5857 5858 5860 5862 5862 5863 5864 5865 5865 5866 5866 5866 5866 5866 5865 5863 5862 5860 5859 5857 5856
5811 5815 5816 5819 5821 5825 5827 5830 5831 5835 5837 5838 5844 5843 5844 5844 5844 5846 5848 5850 5853 5854 5857 5859 5861 5862 5863 5864 5866 5866 5867 5868 5868 5868 5867 5867 5866 5865 5863 5862 5861 5859 5857
5808 5809 5811 5815 5818 5821 5823 5826 5829 5830 5835 5835 5840 5841 5842 5843 5843 5844 5847 5849 5852 5854 5857 5859 5862 5863 5865 5865 5866 5867 5868 5869 5870 5869 5869 5868 5867 5866 5865 5864 5863 5861 5859
5801 5805 5808 5811 5814 5816 5819 5822 5825 5827 5830 5834 5837 5839 5842 5841 5842 5842 5846 5847 5851 5854 5856 5859 5862 5864 5865 5866 5867 5868 5869 5870 5870 5870 5870 5869 5869 5867 5867 5866 5864 5862 5860
5795 5799 5802 5805 5808 5811 5815 5818 5821 5824 5827 5830 5834 5835 5839 5841 5839 5841 5844 5847 5850 5853 5856 5859 5861 5864 5866 5867 5868 5869 5870 5871 5871 5871 5871 5871 5870 5869 5868 5868 5866 5864 5862
5788 5792 5796 5799 5802 5806 5809 5813 5817 5821 5823 5826 5832 5832 5836 5838 5838 5838 5842 5846 5850 5853 5855 5858 5861 5864 5866 5867 5868 5869 5870 5871 5872 5873 5873 5872 5871 5871 5870 5869 5867 5865 5863
5781 5788 5791 5794 5797 5801 5805 5809 5812 5816 5820 5823 5827 5829 5834 5836 5838 5836 5840 5844 5848 5852 5854 5858 5860 5864 5866 5867 5868 5869 5870 5872 5873 5873 5873 5873 5873 5872 5871 5870 5868 5866 5864
5775 5783 5786 5789 5792 5795 5799 5803 5806 5810 5817 5819 5822 5825 5830 5833 5836 5836 5838 5842 5846 5850 5853 5856 5860 5863 5865 5866 5867 5869 5870 5872 5873 5873 5874 5874 5874 5873 5872 5871 5869 5867 5866
5770 5775 5778 5783 5787 5790 5794 5797 5802 5807 5810 5816 5818 5823 5827 5829 5833 5834 5836 5840 5844 5848 5852 5855 5859 5861 5864 5866 5867 5868 5870 5872 5873 5873 5874 5874 5874 5873 5873 5872 5870 5869 5867
5764 5769 5772 5776 5781 5786 5791 5793 5797 5800 5805 5809 5815 5819 5824 5827 5830 5831 5834 5838 5842 5846 5851 5854 5857 5860 5863 5865 5867 5868 5869 5871 5872 5874 5874 5874 5874 5874 5874 5873 5871 5870 5868
5757 5762 5766 5769 5775 5779 5784 5788 5791 5794 5800 5803 5809 5815 5819 5825 5828 5829 5832 5836 5840 5844 5848 5851 5855 5858 5861 5864 5865 5867 5869 5871 5873 5874 5875 5875 5875 5875 5874 5873 5872 5871 5869
5744 5751 5756 5761 5767 5770 5776 5780 5784 5789 5794 5799 5804 5811 5815 5821 5824 5826 5830 5834 5839 5842 5846 5849 5853 5856 5859 5862 5864 5866 5869 5871 5872 5873 5874 5875 5875 5875 5874 5874 5873 5872 5870
5733 5735 5742 5750 5757 5763 5768 5773 5778 5783 5789 5794 5800 5807 5809 5816 5822 5824 5827 5832 5836 5840 5844 5847 5851 5854 5857 5860 5863 5866 5868 5870 5871 5873 5874 5875 5875 5875 5875 5874 5873 5872 5872
5720 5728 5731 5739 5747 5754 5760 5765 5771 5777 5783 5789 5795 5801 5806 5813 5818 5821 5824 5828 5833 5837 5841 5845 5849 5852 5855 5859 5862 5865 5867 5869 5871 5872 5873 5874 5875 5875 5875 5874 5874 5873 5872
5707 5715 5724 5729 5734 5745 5752 5757 5763 5770 5776 5783 5789 5795 5801 5807 5813 5816 5819 5824 5829 5834 5838 5842 5846 5850 5853 5857 5860 5864 5866 5868 5870 5871 5872 5874 5874 5874 5874 5874 5874 5873 5873
5694 5704 5712 5723 5729 5733 5744 5750 5755 5762 5767 5773 5781 5786 5795 5801 5807 5811 5814 5820 5825 5830 5834 5839 5843 5847 5851 5854 5858 5862 5865 5867 5869 5870 5871 5873 5873 5873 5873 5874 5874 5873 5873
5681 5692 5700 5712 5725 5723 5732 5741 5745 5753 5758 5765 5771 5779 5787 5795 5801 5807 5810 5815 5821 5826 5830 5835 5840 5844 5848 5852 5856 5860 5863 5865 5867 5869 5870 5872 5872 5872 5872 5873 5873 5873 5873
5665 5678 5688 5700 5711 5718 5706 5721 5733 5742 5751 5757 5764 5769 5779 5787 5794 5801 5806 5811 5817 5822 5827 5832 5837 5841 5846 5850 5854 5858 5861 5864 5866 5867 5869 5870 5871 5871 5871 5872 5872 5873 5873
5650 5664 5675 5686 5695 5692 5712 5707 5721 5731 5742 5749 5756 5763 5771 5780 5786 5794 5800 5806 5811 5818 5823 5828 5834 5838 5843 5847 5852 5855 5859 5861 5864 5865 5867 5868 5869 5870 5870 5871 5871 5872 5873
5633 5648 5661 5671 5680 5689 5696 5673 5704 5723 5732 5741 5748 5756 5764 5772 5780 5787 5795 5800 5806 5813 5819 5824 5830 5835 5839 5844 5848 5852 5856 5859 5861 5863 5865 5866 5868 5869 5869 5869 5870 5871 5872
5617 5631 5645 5656 5663 5675 5674 5690 5700 5715 5723 5733 5740 5748 5756 5764 5773 5780 5788 5794 5801 5808 5814 5820 5825 5831 5837 5841 5845 5849 5852 5855 5858 5860 5862 5864 5865 5867 5867 5868 5868 5869 5870
5603 5615 5629 5642 5652 5664 5671 5680 5690 5704 5719 5729 5736 5743 5750 5757 5765 5773 5781 5788 5796 5802 5809 5815 5821 5827 5833 5837 5841 5844 5848 5852 5855 5857 5859 5861 5863 5864 5865 5866 5867 5868 5869
5588 5603 5614 5627 5639 5655 5662 5675 5682 5693 5706 5715 5723 5731 5739 5748 5757 5765 5774 5782 5789 5796 5803 5810 5816 5822 5828 5832 5836 5841 5845 5849 5851 5854 5856 5858 5860 5862 5863 5864 5865 5866 5867
5574 5589 5601 5612 5626 5643 5655 5661 5677 5670 5694 5705 5713 5724 5734 5743 5752 5760 5766 5774 5782 5789 5797 5804 5809 5815 5821 5827 5831 5836 5839 5844 5847 5851 5853 5855 5857 5858 5860 5861 5862 5863 5864
5559 5575 5590 5599 5612 5631 5643 5657 5668 5676 5689 5697 5707 5718 5726 5736 5743 5751 5759 5766 5773 5782 5790 5797 5803 5809 5815 5821 5826 5830 5835 5838 5843 5846 5848 5851 5853 5855 5856 5857 5859 5860 5862
5546 5561 5578 5589 5602 5619 5631 5641 5651 5666 5680 5691 5695 5707 5717 5725 5734 5742 5750 5758 5765 5774 5783 5791 5797 5802 5808 5813 5819 5825 5829 5833 5836 5840 5844 5847 5849 5851 5852 5854 5855 5857 5858